Theta_e
293 294 295 296 296 296 296 297 296 294 295 297 302 305 306 308 308 309 311 314 317 318 318 319 319 320 320 319 319 318 318 317 317 316 317 317 317 315 316 316 314 313 312 312 310 310 309 309 309 308 308 306 304 303 301 301 302 300 297 296 296 295
294 295 295 296 296 296 296 297 297 295 293 295 297 299 301 303 305 308 311 312 315 316 317 317 319 318 319 318 318 317 317 317 316 316 315 315 314 316 315 313 311 309 308 307 307 306 306 305 304 304 304 303 301 299 298 298 298 296 293 292 293 293
295 295 296 296 296 297 296 296 297 297 295 295 297 299 300 302 305 307 310 312 313 314 314 315 316 317 318 317 318 317 317 316 315 315 315 313 312 312 310 308 307 306 305 304 303 302 301 301 300 300 300 299 297 297 296 295 294 291 290 289 288 288
296 296 295 296 297 298 298 297 297 297 297 297 298 300 301 303 304 306 308 309 311 312 313 313 314 314 314 315 315 314 314 313 313 311 309 309 306 308 306 305 304 304 304 303 302 301 300 299 299 297 298 297 295 294 294 293 292 289 288 288 287 287
296 295 296 297 297 297 297 297 299 299 299 299 300 301 302 305 305 307 308 309 310 310 311 311 311 312 312 312 311 310 309 308 306 306 306 303 301 302 304 303 302 302 301 300 299 298 297 298 297 297 297 296 295 293 292 291 290 289 288 287 286 287
293 294 295 295 296 297 299 299 299 300 300 301 301 302 304 305 306 307 308 309 309 309 308 309 308 308 308 308 306 305 303 303 302 302 302 301 301 300 299 301 300 299 298 297 296 295 295 295 295 295 295 295 293 291 289 289 289 288 287 286 285 287
292 296 297 297 297 297 297 299 300 300 300 301 302 303 304 305 306 307 307 305 305 304 304 304 304 305 304 302 301 300 300 300 300 299 299 299 299 298 298 296 297 296 296 295 294 294 293 292 292 292 291 290 291 289 288 287 286 286 286 286 286 286
293 293 294 297 296 297 297 298 299 299 299 301 301 302 301 302 301 303 302 302 302 301 301 301 301 301 301 300 299 299 298 298 299 298 298 299 297 296 296 296 295 295 293 292 292 291 291 290 291 290 289 288 287 287 287 286 286 286 286 286 286 286
292 294 295 296 294 293 295 296 297 296 297 298 298 299 299 300 301 301 301 300 300 299 299 300 300 299 298 298 297 297 297 297 297 297 297 296 296 295 293 292 292 291 292 291 291 290 289 289 289 288 287 287 286 286 286 286 286 286 286 286 286 286
292 291 293 293 294 292 291 293 296 297 297 297 295 296 298 298 299 299 299 299 299 299 298 297 297 297 296 296 296 296 296 296 295 295 294 294 294 293 292 292 291 290 290 290 289 289 288 288 287 287 287 287 287 286 286 286 285 285 285 285 285 285
292 291 292 292 291 291 291 292 293 293 294 295 295 295 297 297 298 298 298 298 297 295 295 294 294 295 295 294 295 294 294 293 293 292 292 292 292 292 291 291 290 289 287 287 287 287 287 287 286 286 286 286 286 286 286 286 285 285 284 284 284 284
291 292 292 291 291 291 291 292 294 295 295 295 294 295 294 297 297 297 297 296 294 293 293 293 293 294 294 294 293 292 291 291 291 291 291 291 290 290 289 289 289 288 287 286 286 286 286 286 286 285 286 286 286 286 286 285 285 285 284 283 283 283
290 289 290 291 291 292 293 294 295 295 295 294 294 295 294 295 296 296 295 293 292 292 292 292 292 292 293 292 292 291 291 290 290 290 289 289 288 288 288 288 287 286 286 286 286 286 286 286 286 287 288 287 287 286 285 284 284 284 283 283 282 281
290 290 290 290 291 292 293 294 295 294 294 294 294 293 292 294 295 295 293 291 291 291 292 291 292 291 291 290 290 290 290 290 289 288 288 287 287 286 287 286 286 286 286 286 286 286 286 287 288 289 288 288 287 285 284 284 283 283 282 282 282 281
292 291 290 290 291 292 293 295 295 295 295 293 293 291 292 292 293 293 291 291 291 291 291 291 291 291 290 290 289 289 289 288 288 287 287 286 286 286 285 285 285 285 286 286 286 286 287 288 289 289 288 287 287 286 284 283 282 282 281 281 281 281
290 291 291 291 292 293 293 294 295 295 293 292 291 291 292 292 292 292 291 290 291 291 291 291 291 290 290 288 288 288 288 287 287 287 286 285 285 285 284 285 285 285 285 285 285 286 286 287 288 289 288 287 286 285 283 282 282 281 281 281 280 280
290 290 289 290 290 289 291 292 293 292 292 291 291 292 292 292 292 291 290 290 290 290 290 290 290 289 288 287 287 287 287 287 286 285 284 284 284 284 284 284 284 284 284 285 285 285 286 287 288 288 287 287 286 285 283 281 281 281 280 280 280 280
291 291 291 289 288 288 290 292 292 292 291 290 292 291 292 292 291 291 290 290 290 290 290 290 289 288 287 287 287 287 286 285 285 284 283 283 283 283 283 283 284 283 283 284 284 285 285 287 288 287 287 286 285 284 281 281 280 280 280 280 280 280
291 290 288 287 288 288 289 289 290 291 290 290 291 291 291 291 291 291 290 290 290 290 290 289 288 287 287 286 286 286 285 284 284 283 283 282 282 282 282 282 283 283 283 283 283 284 285 286 287 287 286 285 284 282 280 280 280 279 279 279 279 280
286 286 288 287 287 288 287 288 290 291 290 290 290 290 290 290 291 291 290 290 289 289 289 289 288 287 286 286 286 285 285 284 283 282 283 282 282 282 281 281 281 282 282 282 283 283 283 284 285 286 286 285 283 281 280 280 279 278 278 278 279 279
287 286 286 286 287 286 287 288 290 290 290 290 290 290 291 291 291 290 290 290 289 289 289 288 287 287 286 286 285 284 283 283 282 281 281 282 282 281 280 280 280 280 280 281 282 281 282 283 284 285 285 284 283 281 280 279 279 277 277 278 278 278
285 285 286 286 287 286 286 288 289 289 290 290 290 290 291 291 292 291 291 290 288 288 287 287 286 286 286 285 284 283 283 282 281 280 280 280 280 279 279 279 279 279 279 279 280 281 281 282 283 284 284 284 283 282 280 279 278 277 277 277 277 277
287 287 287 287 286 285 286 287 288 289 289 289 289 290 292 292 291 290 289 288 287 286 286 286 286 285 285 285 283 282 281 281 280 279 279 278 278 278 278 278 278 278 278 279 279 280 281 281 281 282 284 284 283 283 281 279 279 278 277 277 276 277
284 284 284 283 284 285 285 287 287 288 288 288 288 290 290 289 288 288 287 286 286 285 285 285 285 285 284 282 281 280 279 279 279 279 278 278 277 277 276 276 277 277 277 278 278 279 280 281 281 282 283 283 283 283 281 279 279 279 277 276 276 276
284 283 282 282 283 284 285 286 286 286 286 287 288 286 285 286 285 285 285 285 284 284 283 283 282 282 281 280 281 280 278 278 278 277 277 277 276 276 276 276 276 276 276 276 278 279 281 281 281 282 282 283 283 283 281 280 279 280 277 276 275 276
282 282 280 281 282 283 284 286 286 286 285 286 281 281 282 283 283 284 283 283 283 282 281 281 280 280 280 280 280 279 278 277 277 277 277 277 276 276 275 275 275 275 275 275 276 278 279 280 281 282 282 282 283 283 282 281 281 281 277 276 276 276
282 281 279 280 281 282 283 285 286 284 284 281 278 279 279 279 280 281 281 281 280 279 279 279 279 279 279 279 279 278 277 277 276 276 276 276 276 276 275 275 275 275 275 275 275 276 277 279 280 281 282 282 282 283 283 282 282 280 279 275 275 275
280 280 280 278 279 281 282 283 284 284 283 277 278 278 279 278 278 278 278 277 277 277 276 276 276 276 277 277 278 278 278 277 277 277 276 276 276 276 275 275 275 274 274 274 275 275 275 276 277 278 280 281 282 282 282 282 281 279 278 275 275 276
280 280 279 280 278 279 279 279 279 280 277 276 277 278 278 278 278 278 276 276 276 275 275 276 276 275 275 276 277 277 277 277 278 277 276 276 275 275 275 275 274 274 274 274 274 274 275 275 275 276 278 279 279 280 280 280 279 279 277 275 275 277
280 279 278 279 278 278 278 278 278 275 276 276 276 276 276 277 277 277 276 276 275 275 275 276 274 275 275 276 276 276 276 277 277 277 276 276 276 275 275 275 275 275 275 275 275 274 274 274 275 275 275 276 277 277 278 277 276 276 273 270 268 268
278 277 277 277 276 276 276 275 273 273 275 275 275 276 277 277 276 276 276 275 274 274 274 275 275 275 276 275 275 276 277 277 277 277 277 277 277 278 277 276 276 276 276 276 275 273 273 273 273 274 278 277 278 276 275 275 275 274 271 270 270 265
276 276 276 275 275 275 275 272 272 273 275 275 275 276 277 276 275 275 275 274 274 274 273 274 274 274 275 275 275 274 273 275 277 276 276 276 277 279 279 279 277 277 277 276 276 276 274 274 275 278 279 279 279 279 278 277 277 275 272 273 274 268
273 274 274 273 273 274 273 272 272 272 273 274 275 276 277 276 275 275 274 273 274 274 274 274 274 273 274 274 274 274 274 274 274 278 279 278 278 279 280 280 280 280 279 277 276 277 278 277 278 279 280 279 279 279 278 278 277 277 275 276 270 264
273 275 274 273 273 274 273 272 272 272 272 273 274 275 275 275 276 275 274 273 273 273 273 274 274 273 273 273 273 273 274 274 273 273 277 278 278 279 279 280 280 280 280 280 278 276 276 278 279 280 280 280 279 279 278 278 277 277 277 276 272 264
275 275 274 273 273 273 272 272 271 270 271 271 272 273 274 274 275 275 273 273 273 273 273 273 273 273 273 273 272 272 273 273 274 273 273 275 278 279 279 280 280 280 280 280 279 279 277 278 280 281 280 280 280 279 279 278 278 278 278 277 269 264
274 274 272 271 271 272 271 271 270 269 270 270 271 272 272 273 273 273 273 273 272 272 273 273 273 273 273 273 273 273 273 274 274 275 274 273 274 276 278 280 280 280 280 280 280 279 279 279 280 281 280 280 280 279 279 279 277 279 279 275 267 264
273 271 271 271 270 270 270 271 269 268 268 269 270 270 271 271 271 270 271 270 271 273 273 273 273 273 272 272 272 273 273 274 274 275 275 274 274 274 274 275 277 279 280 279 279 280 280 280 281 281 281 281 280 280 280 279 275 274 274 272 265 263
272 271 270 270 270 270 269 269 267 267 267 268 268 269 270 270 271 271 271 271 271 272 272 272 272 273 273 273 273 273 274 274 275 275 275 276 276 276 275 275 276 276 279 279 279 280 280 281 281 281 281 280 280 280 280 272 270 270 270 268 264 264
Wind_Speed
5 4 4 3 2 2 2 2 2 3 5 6 7 9 8 8 7 5 5 7 8 8 9 10 10 9 9 9 9 8 9 9 8 8 8 7 7 6 6 6 6 6 6 6 6 7 8 8 8 8 8 8 9 8 8 7 9 10 9 6 7 6
5 3 4 4 3 2 2 2 2 3 3 5 6 4 4 5 6 6 8 7 7 7 7 8 9 9 9 9 9 8 9 9 8 8 7 8 7 7 7 6 7 7 7 7 8 7 7 9 8 9 9 8 9 9 8 7 8 9 10 8 6 7
3 2 2 2 3 3 2 1 3 3 2 2 3 6 6 7 8 7 8 7 8 8 9 8 7 8 7 8 8 9 9 8 8 8 7 6 6 6 7 7 8 8 8 8 9 9 7 9 9 7 9 10 9 7 9 8 9 12 9 9 9 8
3 2 2 2 3 3 3 3 2 2 3 2 3 3 4 5 6 6 6 5 5 7 6 6 5 6 6 7 7 7 7 7 7 7 6 7 6 7 7 7 8 8 10 10 9 9 9 9 9 8 9 10 10 8 7 8 9 10 9 8 9 8
5 3 3 4 4 4 3 3 3 3 3 3 4 4 4 5 5 5 5 5 6 6 6 6 6 6 7 8 6 6 6 6 5 6 8 7 6 4 7 9 9 9 9 9 9 9 7 8 9 6 9 10 11 10 8 7 9 9 9 9 8 7
1 2 3 4 4 3 4 3 3 3 3 4 4 4 5 4 5 5 5 5 5 6 6 6 6 7 7 7 6 7 5 6 6 6 7 8 7 8 6 7 9 8 9 10 9 8 9 8 8 7 6 10 11 10 9 7 8 8 8 9 9 8
4 4 3 4 4 3 3 4 4 4 4 4 5 4 3 4 4 5 5 5 6 5 6 5 5 6 6 6 6 7 7 7 7 6 8 8 8 8 8 7 6 9 8 8 10 10 9 8 9 9 8 8 8 9 9 9 9 8 8 8 8 8
3 4 4 4 4 5 4 4 4 4 4 4 4 4 4 4 4 5 5 5 6 5 6 5 5 7 7 7 7 8 7 7 7 8 6 8 10 8 7 9 6 8 9 9 8 8 9 9 8 9 9 10 9 10 9 8 9 9 8 8 7 7
7 7 6 5 4 4 4 4 4 4 4 4 4 4 4 4 5 5 6 5 6 6 6 6 6 6 7 7 7 6 7 7 7 8 9 6 10 11 9 8 9 6 9 9 9 9 9 9 9 10 10 10 11 11 10 9 9 9 8 8 8 7
6 7 7 6 6 4 3 3 4 4 4 5 3 4 4 5 6 6 6 6 6 6 6 5 5 6 7 7 7 7 7 7 7 7 8 8 9 9 10 10 10 7 7 8 8 8 8 9 9 10 10 10 9 10 9 10 10 10 9 9 9 10
8 9 8 7 4 4 4 4 3 3 3 4 4 4 5 5 6 6 6 6 7 5 6 5 5 6 7 8 7 8 8 7 7 8 7 8 9 8 9 9 10 10 9 7 7 8 7 8 8 7 8 9 9 9 10 10 10 10 10 11 11 9
7 8 7 5 5 4 4 4 4 4 5 5 4 5 4 5 6 6 6 6 6 5 6 6 6 7 7 8 8 7 8 8 8 8 8 8 9 9 8 9 9 9 10 10 8 8 8 7 6 8 11 9 10 10 9 8 9 9 9 10 10 9
7 5 6 7 7 8 8 7 6 5 5 5 5 5 5 4 6 6 7 6 6 6 7 7 7 7 8 7 8 7 9 8 8 8 9 8 8 9 8 10 11 10 9 10 9 10 7 6 6 14 13 14 14 10 9 10 9 9 9 8 9 10
8 9 10 10 9 9 8 8 8 8 8 7 7 6 5 5 6 7 6 7 7 6 7 7 8 7 8 8 8 8 8 9 9 9 9 9 9 7 7 10 11 9 8 7 8 8 7 7 11 15 15 15 14 10 9 9 9 8 8 8 9 9
12 11 9 8 11 12 13 10 10 10 9 9 7 6 6 6 6 7 7 7 7 7 7 7 9 8 8 8 8 8 8 9 10 10 9 9 8 9 11 11 10 9 8 8 9 9 8 9 13 16 16 16 16 15 11 8 8 9 9 8 9 9
6 9 11 13 12 12 11 11 11 8 7 7 7 8 7 7 6 7 8 7 7 8 8 8 9 9 9 8 8 8 9 9 9 9 8 9 8 11 10 9 10 8 9 9 9 8 8 10 13 17 17 17 17 16 12 8 9 9 9 9 9 8
6 6 7 10 10 8 9 9 7 8 8 8 9 7 8 6 8 6 7 8 7 8 8 9 9 10 9 9 8 8 8 9 9 9 9 9 10 10 8 9 9 9 9 9 8 8 8 7 16 17 18 18 18 17 13 9 9 9 9 8 8 8
13 13 13 6 7 9 10 10 8 9 9 7 8 7 7 8 7 7 7 8 8 8 8 9 9 9 10 10 9 9 9 8 10 10 8 8 7 6 7 5 6 9 9 8 9 9 9 10 16 17 17 18 18 17 9 9 9 9 9 8 7 7
10 7 4 6 9 10 10 8 8 8 8 9 9 9 8 8 9 9 9 9 9 9 8 8 10 10 10 9 10 9 9 10 9 8 9 10 8 9 7 7 7 6 9 9 10 10 10 10 13 16 17 18 19 13 8 9 8 8 9 7 7 6
4 4 8 9 10 9 9 10 10 10 10 10 8 10 9 10 10 10 10 9 9 9 8 8 9 10 9 9 10 10 8 8 7 7 8 11 11 10 7 6 7 5 6 9 9 10 12 11 13 16 17 17 16 11 10 8 8 9 8 8 6 5
8 8 8 10 11 10 10 11 12 11 11 10 10 10 11 12 11 11 12 10 9 9 9 8 8 9 10 9 9 9 10 9 9 7 7 7 8 8 6 7 7 7 4 4 7 8 11 11 12 16 17 17 17 11 8 8 8 9 8 8 7 5
9 8 9 11 9 9 11 11 11 11 11 11 10 11 13 14 11 8 8 9 9 9 9 8 8 8 10 10 9 8 9 8 8 9 9 7 6 8 7 7 7 9 6 5 7 7 7 10 11 12 17 16 16 14 8 7 8 9 9 8 7 8
8 10 10 8 8 10 10 10 11 11 10 10 10 14 12 7 7 9 8 8 9 9 9 8 8 10 8 8 10 9 8 8 10 9 10 10 7 8 8 9 8 8 7 6 4 6 6 6 9 10 16 16 16 16 12 6 6 8 8 8 7 6
5 4 4 5 8 10 10 10 11 10 9 10 13 11 5 7 7 8 9 9 9 8 8 9 7 8 9 8 10 11 9 7 8 9 10 9 10 12 11 9 8 7 7 7 5 5 7 6 9 10 14 15 16 15 13 6 6 8 8 8 6 6
6 5 5 6 7 8 9 10 11 9 8 12 10 5 6 7 7 8 8 8 9 9 9 8 10 9 8 10 10 12 11 9 10 9 10 11 11 12 12 10 10 8 7 7 7 6 7 8 7 11 11 15 16 15 12 11 9 14 6 8 9 8
5 6 5 6 7 8 8 11 11 9 10 10 5 7 7 8 8 8 8 8 8 9 8 9 9 8 9 11 11 11 12 11 10 10 10 10 11 11 11 7 7 8 8 8 7 7 8 7 7 10 12 12 16 15 14 14 14 15 6 4 5 7
8 6 5 5 7 7 8 8 10 9 11 6 7 8 9 8 9 9 9 9 8 9 8 8 8 9 9 10 11 12 11 11 11 11 8 10 9 10 11 8 8 9 9 8 7 7 8 8 7 6 11 14 14 15 15 15 16 14 13 7 5 5
6 7 7 5 5 6 6 6 7 11 7 7 7 8 9 10 10 10 10 9 8 9 9 9 7 8 9 10 9 10 11 13 13 12 11 10 10 10 10 10 9 8 9 9 8 6 7 7 6 7 7 9 11 11 15 15 15 14 12 8 7 10
7 7 6 7 4 4 4 5 4 4 7 9 8 8 9 10 10 10 9 9 8 8 9 11 9 8 8 8 8 7 9 9 10 10 11 11 11 11 9 10 11 10 9 9 10 8 6 5 5 6 8 7 7 7 10 11 11 13 13 7 7 10
5 6 5 5 5 5 5 5 5 5 7 7 8 8 9 9 9 10 9 10 8 8 9 9 10 11 9 10 10 10 9 9 10 12 14 15 14 14 12 12 12 13 13 10 10 11 7 5 7 8 8 10 9 8 8 7 8 9 8 7 5 6
5 5 6 5 5 5 5 5 4 5 8 8 8 9 10 9 8 8 8 8 7 8 7 7 9 9 9 9 8 8 9 11 12 12 9 7 9 13 17 17 13 12 12 12 13 13 10 10 11 15 15 13 16 14 12 10 10 10 9 9 11 8
6 6 6 4 5 5 5 5 4 4 5 7 8 8 10 9 8 7 8 7 7 7 7 7 7 7 7 8 9 8 4 2 4 4 7 8 8 5 2 5 9 10 11 12 11 13 18 19 19 19 23 20 20 19 17 14 15 13 11 14 19 9
5 5 5 5 5 5 5 5 5 5 5 6 7 8 8 9 8 7 6 7 7 8 8 7 8 7 7 7 8 8 8 6 3 4 4 5 3 3 4 7 5 7 9 8 10 11 7 2 8 21 24 22 22 21 19 18 18 18 19 20 13 6
5 5 6 6 6 6 6 6 5 6 6 5 6 6 7 8 8 8 8 8 6 8 8 7 7 7 8 7 7 8 8 8 7 3 4 7 5 5 6 7 8 11 14 13 8 8 5 7 14 21 23 23 22 21 20 19 19 19 20 21 15 7
6 5 5 6 6 6 6 6 5 4 4 5 6 6 7 8 8 7 7 7 7 7 8 7 7 8 8 9 9 8 8 9 9 10 7 3 6 9 10 10 11 13 14 16 13 13 9 9 16 23 24 23 22 22 20 19 20 20 20 21 10 6
6 6 6 5 6 6 5 5 4 4 4 4 4 4 5 5 5 4 5 7 7 8 7 7 7 7 7 6 6 7 8 8 9 9 8 8 6 5 7 10 13 14 15 16 16 16 13 13 18 22 23 23 22 21 20 19 15 19 22 18 10 8
6 4 4 6 5 5 5 5 3 4 4 5 5 5 5 4 5 4 5 8 7 7 7 7 6 6 6 6 7 8 8 9 8 8 9 11 13 13 11 10 10 13 17 14 14 17 16 17 20 23 22 23 21 21 20 19 11 13 13 11 7 7
6 5 5 5 5 4 3 1 3 5 4 5 5 5 5 5 5 5 5 5 7 6 5 6 6 7 8 9 9 8 8 7 8 9 9 9 8 7 8 7 7 7 12 16 13 16 16 18 21 21 21 21 22 22 24 14 13 11 10 11 10 10
Wind_Direction
238 206 208 197 208 249 267 274 210 233 228 222 211 206 209 201 196 194 194 192 194 192 192 192 193 194 194 194 186 176 182 185 183 184 189 184 178 172 165 167 162 156 150 144 142 146 140 136 135 130 126 128 115 113 113 118 124 121 115 109 118 124
227 202 193 176 174 188 207 212 216 224 246 210 214 226 200 175 181 185 191 189 185 187 188 194 193 189 188 185 178 179 186 185 181 182 174 181 173 175 167 159 154 150 146 146 139 131 133 128 126 126 125 118 117 124 118 120 114 111 115 111 102 112
228 207 194 150 136 138 141 191 215 217 202 203 200 194 197 198 196 187 196 184 191 186 189 188 186 183 178 174 179 178 183 179 177 179 176 150 167 154 154 153 152 144 139 134 132 132 133 123 124 124 124 120 118 117 121 121 116 113 112 109 99 97
206 167 143 92 123 141 150 153 166 177 195 197 189 196 205 199 194 196 182 177 178 179 177 174 166 166 166 171 176 179 172 168 170 158 143 158 153 156 146 142 138 138 139 137 135 132 131 130 126 130 126 123 119 117 120 123 121 114 113 112 115 114
194 185 161 150 147 148 143 146 163 172 181 178 183 182 192 186 177 176 165 166 168 168 166 161 165 163 167 164 166 163 159 153 147 146 143 137 132 125 141 141 140 141 137 133 131 125 125 128 124 129 130 130 130 129 123 125 126 125 127 121 121 112
167 189 170 162 170 158 158 152 142 155 161 170 170 178 164 158 160 156 154 159 161 158 155 162 159 159 160 160 156 147 137 131 132 131 131 136 132 128 115 130 133 128 128 126 121 119 122 119 115 113 118 127 130 126 123 120 120 117 117 121 121 118
195 211 183 186 170 162 159 160 154 151 161 159 167 163 170 150 156 149 146 148 145 147 151 151 152 146 140 132 130 134 134 135 132 129 131 126 119 121 120 102 113 116 115 123 130 128 123 124 126 125 123 118 119 115 115 115 110 111 114 109 111 116
199 205 202 197 192 184 178 167 163 163 161 171 161 161 159 148 139 134 131 134 134 131 133 133 130 136 137 136 136 138 136 132 129 125 121 131 122 113 112 119 111 116 118 116 117 117 128 133 136 133 126 120 114 108 108 112 115 112 108 107 107 112
216 216 209 210 198 200 182 168 165 162 155 153 152 157 147 141 131 130 129 134 131 131 138 142 140 138 133 129 125 122 123 122 125 128 126 123 124 124 118 110 113 118 124 127 127 131 132 129 124 123 119 120 120 119 120 116 108 105 102 104 109 106
215 217 213 212 209 198 193 186 170 159 157 152 148 145 138 135 131 131 131 135 129 135 135 125 122 120 118 114 118 119 115 114 111 110 118 122 120 122 127 128 123 118 113 116 113 118 125 122 116 116 119 120 119 119 116 116 117 115 112 109 106 105
212 209 206 210 198 195 196 190 182 157 150 142 143 144 148 142 135 135 137 134 129 126 120 114 105 111 114 113 114 116 114 114 115 116 117 119 116 117 121 122 124 119 104 99 106 113 112 113 121 129 131 126 119 120 121 124 125 124 119 112 106 99
214 212 202 195 198 185 191 196 191 179 165 162 153 147 154 138 141 137 134 129 125 123 119 115 116 120 118 119 121 122 121 123 125 122 118 114 117 121 121 115 112 111 116 113 106 100 103 101 101 125 121 124 131 128 123 120 120 119 118 115 110 104
219 203 196 195 190 192 190 192 187 182 174 166 162 157 160 145 141 138 132 129 132 132 126 126 127 130 127 128 125 128 125 122 119 115 113 114 116 118 121 120 108 110 117 118 120 116 111 111 125 131 129 130 129 125 127 125 120 116 114 115 118 119
209 206 203 195 194 193 193 189 189 181 184 171 171 161 148 141 143 138 135 141 139 142 138 140 134 133 132 133 134 135 132 129 123 120 121 119 117 118 122 111 111 117 120 115 115 115 123 124 134 131 131 131 130 128 123 121 120 121 120 122 119 119
204 201 197 194 194 195 198 188 180 190 179 173 170 145 150 146 146 142 143 150 147 148 143 146 141 141 139 139 136 132 129 129 126 127 130 130 130 127 112 119 120 119 123 123 123 123 127 127 133 130 130 130 129 125 120 118 120 121 124 122 121 123
204 200 199 201 203 198 188 190 187 176 162 157 152 157 156 151 152 153 152 153 156 155 152 154 146 145 143 139 137 137 136 137 136 135 130 128 124 117 115 120 123 127 126 128 126 123 125 126 133 131 131 130 127 126 121 118 118 114 117 120 123 125
218 217 206 209 197 186 179 193 178 158 160 160 160 165 155 159 154 159 158 159 162 161 161 155 153 144 143 145 144 142 142 139 135 137 143 141 139 138 140 141 135 135 131 129 127 123 123 130 137 134 133 131 129 125 119 114 112 110 111 112 117 122
208 206 212 182 166 185 190 184 169 162 165 158 157 159 163 161 165 162 164 169 169 170 166 159 154 149 150 151 150 147 146 146 149 144 135 127 119 110 118 115 128 137 138 136 134 128 127 137 140 137 135 132 128 123 114 115 114 114 115 115 119 124
208 202 155 165 182 179 186 166 162 155 151 164 168 164 167 167 173 174 175 177 172 169 169 164 156 156 156 155 152 153 153 150 148 138 133 131 135 138 142 141 140 140 141 141 142 133 132 137 142 140 137 133 130 123 117 118 114 115 117 120 125 127
174 157 162 170 184 182 162 160 165 161 165 173 169 166 170 181 187 177 173 177 172 167 167 165 160 157 157 158 159 156 153 146 140 140 146 143 147 144 144 134 125 128 141 145 146 146 139 140 144 143 139 134 134 131 128 129 121 121 126 125 127 127
175 165 159 168 178 177 162 163 164 165 171 173 175 179 180 193 190 179 176 171 165 162 161 160 160 159 158 161 158 155 151 152 147 137 136 137 135 132 121 136 127 124 117 128 135 137 138 137 142 144 141 140 141 137 132 134 129 130 138 139 137 140
133 148 169 182 180 155 160 159 167 175 179 181 175 186 198 198 188 169 159 153 157 158 157 160 160 163 163 158 148 148 146 138 136 142 138 132 129 129 130 129 135 136 131 132 134 139 140 139 143 146 147 147 148 147 141 144 140 142 144 148 149 148
164 170 182 178 156 156 159 162 166 182 183 177 183 204 203 176 147 154 154 149 151 158 162 162 167 162 163 155 148 141 139 147 147 142 140 138 134 134 134 139 137 133 131 133 126 132 138 141 141 149 152 152 153 153 151 151 149 145 147 149 152 158
152 127 125 142 152 156 160 163 175 179 180 181 204 205 138 138 148 145 147 153 158 161 162 164 159 160 151 143 141 142 145 145 144 146 145 144 144 144 143 143 140 136 132 134 135 134 141 143 146 148 154 155 157 159 161 151 161 157 143 144 152 159
161 154 146 143 151 158 164 167 175 180 179 201 203 141 135 139 140 145 151 156 160 164 164 160 157 152 149 150 153 148 149 150 149 150 149 148 147 147 148 149 148 141 140 138 141 145 150 154 152 155 156 160 161 162 163 162 155 162 160 149 160 169
141 141 145 150 156 164 168 174 179 181 190 203 135 135 133 140 145 146 153 161 163 158 160 159 156 152 154 155 154 154 152 157 155 154 159 158 154 153 152 152 149 147 149 149 148 152 159 162 162 163 164 164 165 166 165 165 165 163 160 157 145 153
158 147 151 166 165 173 176 182 180 178 195 177 138 144 147 143 146 151 159 164 164 162 156 153 157 158 160 162 159 158 160 157 159 158 165 161 161 160 158 158 160 159 159 158 159 158 163 168 168 167 171 171 171 170 167 165 165 162 159 151 137 131
138 149 159 175 180 174 181 186 184 186 186 140 153 148 148 149 152 161 166 163 163 162 154 153 157 161 166 166 171 170 167 166 168 166 164 168 168 167 162 161 163 162 163 167 168 169 165 166 166 169 173 174 175 173 171 168 164 162 157 145 149 156
151 166 167 172 187 173 174 181 187 160 134 158 153 155 153 158 160 159 158 163 161 159 164 163 166 165 166 171 169 171 171 172 171 166 169 173 169 169 167 167 168 168 173 171 172 169 168 167 174 173 176 175 175 171 169 166 165 160 157 152 162 161
162 163 164 174 172 173 168 173 168 146 150 152 157 150 150 156 164 163 168 167 166 170 173 171 166 166 171 180 177 173 176 182 180 177 179 179 176 171 176 175 178 179 178 174 168 172 175 182 186 189 180 178 175 171 166 160 160 164 159 150 138 112
154 159 163 171 164 165 167 165 150 153 153 157 154 157 157 163 164 160 161 163 163 173 177 174 173 179 176 177 186 194 191 182 184 188 194 208 193 183 175 176 187 188 184 173 168 168 178 187 195 201 193 184 178 170 166 169 174 168 168 162 145 116
148 150 160 158 156 159 159 152 149 159 157 155 160 161 162 156 155 157 168 168 173 171 173 176 178 180 178 179 182 176 190 228 201 212 198 195 197 209 310 226 195 187 174 177 188 180 172 186 202 187 183 183 181 181 176 173 171 168 161 160 158 146
136 136 139 149 151 154 153 157 162 164 167 164 167 168 163 156 160 169 168 174 185 181 179 176 178 183 181 182 179 179 177 165 175 177 178 178 191 177 184 181 166 161 188 189 176 194 226 3 148 173 182 181 182 180 178 174 175 172 169 166 148 146
143 154 161 156 157 157 161 166 177 174 168 166 165 167 160 167 167 178 184 184 181 176 184 183 181 176 180 182 178 182 177 176 172 168 165 163 175 179 180 175 177 182 186 196 195 178 175 173 173 176 179 180 179 179 178 176 176 175 174 175 162 150
163 148 145 152 157 161 168 174 179 165 161 164 170 167 170 178 181 180 176 177 177 179 182 181 185 186 185 182 180 185 183 183 183 182 183 179 188 194 195 196 194 192 189 191 192 190 192 185 178 177 177 175 177 176 178 177 178 177 178 172 174 182
145 146 147 153 160 163 165 181 177 167 166 156 165 172 181 184 192 185 171 178 179 179 186 190 189 186 191 188 189 190 191 196 193 193 180 171 166 194 217 217 207 197 191 192 191 189 192 187 179 180 175 173 175 177 176 175 176 182 186 181 184 175
127 127 141 146 153 157 172 194 170 151 146 153 156 168 179 183 187 177 176 176 179 187 189 185 184 183 183 182 191 193 195 198 199 194 188 190 191 193 191 190 197 201 194 190 190 190 188 182 181 179 174 173 174 174 175 170 171 181 192 186 182 193
127 140 152 156 162 163 165 158 113 138 145 154 161 171 186 187 186 187 186 186 186 186 184 183 186 184 187 191 196 195 199 200 198 201 205 205 209 205 196 189 189 180 194 189 188 190 187 182 179 176 174 173 176 176 175 169 187 185 195 190 190 198